User: anonymous   Login
Location: Auttagershofen
(48.1940°N, 10.0237°E)
Time: 10:47:22
(UTC+00:00)
Language:

Cosmos 1727 Rocket - Orbit

View from above orbital plane
View from above orbital plane
View from above satellite
View from above satellite

Ground track
Ground track

The orbit is defined by the following mean orbital elements,

1 16511U          26071.20349058 +.00000000 +00000-0 +49454-4 0 00004
2 16511  82.9475  13.9309 0024585  13.9369  98.3276 13.75986977    08
Epoch (UTC): 12 March 2026 04:53:01
Eccentricity: 0.0024585
inclination: 82.9475°
perigee height: 960 km
apogee height: 996 km
right ascension of ascending node: 13.9309°
argument of perigee: 13.9369°
revolutions per day: 13.75986977
mean anomaly at epoch: 98.3276°

The dashed part of the orbit path shows where the satellite is in the earth's shadow,  

DLR